Regional Weather Roundup
Issued by NWS Green Bay, WI

Home | Current Version | Previous Version | Graphics & Text | Print | Product List | Glossary Off
Versions: 1 2 3 4 5 6 7 8 9 10 11 12 13 14 15 16 17 18 19 20 21 22 23 24 25 26 27 28 29 30 31 32 33 34 35 36 37 38 39 40 41 42 43 44 45 46 47 48 49 50

000
ASUS43 KGRB 280100
RWRGRB

NORTH-CENTRAL AND NORTHEAST WISCONSIN REGIONAL WEATHER ROUNDUP
NATIONAL WEATHER SERVICE GREEN BAY WI
800 PM CDT WED MAY 27 2015

WIZ005-009-010>012-018-019-280200-
NORTH CENTRAL WISCONSIN

CITY           SKY/WX    TMP DP  RH WIND       PRES   REMARKS
IRONWOOD       MOCLDY    64  57  77 S7        29.94R
MANITOWISH WTR NOT AVBL
ARBOR VITAE    NOT AVBL
EAGLE RIVER    NOT AVBL
LAND O LAKES   NOT AVBL
RHINELANDER    CLOUDY    60  56  86 SE5       30.02R
PHILLIPS       NOT AVBL
ANTIGO         NOT AVBL
TOMAHAWK       NOT AVBL
MERRILL        NOT AVBL
$$

WIZ013-073-280200-
NORTHEAST WISCONSIN

CITY           SKY/WX    TMP DP  RH WIND       PRES   REMARKS
IRON MOUNTAIN  MOCLDY    68  60  75 SE5       29.95R
MARINETTE      PTCLDY    63  54  72 SW6       29.96S
$$

WIZ017-030-035>037-045-280200-
CENTRAL WISCONSIN

CITY           SKY/WX    TMP DP  RH WIND       PRES   REMARKS
MEDFORD        NOT AVBL
WAUSAU         PTCLDY    71  59  65 W3        30.00R
MOSINEE        CLEAR     68  61  77 CALM      30.02R
MARSHFIELD     MOCLDY    73  59  61 SW6       30.01R
WISC RAPIDS    PTCLDY    71  59  65 CALM      30.02R
STEVENS POINT  NOT AVBL
WAUPACA        NOT AVBL
SHAWANO        NOT AVBL
CLINTONVILLE   NOT AVBL
$$

WIZ038-039-048-051-280200-
FOX VALLEY

CITY           SKY/WX    TMP DP  RH WIND       PRES   REMARKS
NWS GREEN BAY  CLEAR     72  61  68 S3        30.00R
APPLETON       PTCLDY    73  55  53 W7        30.01R
OSHKOSH        CLEAR     71  58  63 S3        30.01R
FOND DU LAC    CLEAR     71  57  61 SW6       30.02R
$$

WIZ022-050-052-280200-
EAST CENTRAL WISCONSIN

CITY           SKY/WX    TMP DP  RH WIND       PRES   REMARKS
STURGEON BAY   MOCLDY    61  55  82 S6        30.01S
MANITOWOC      NOT AVBL
SHEBOYGAN      CLEAR     68  58  70 SW5       30.03R
$$

LMZ563-521-522-541>543-280200-
LAKESHORE

STATION/POSITION TIME  TEMP    WIND        PRES    VSBY  WAVE
                       AIR SEA DIR/SP/G                  HT/PER
                 (UTC) (F)     (DEG/KT/KT) (MB)    (MI)  (FT/S)
SHEBOYGAN LKSHOR 0000   63     180/ 19/ 20 1016.2R
KEWAUNEE LKSHORE 0000   74      40/  8/ 11 1015.0R
ALGOMA MARINA    0008           50/  6/  7   N/A
NORTHPORT PIER   0000   64     220/  5/  8 1013.2S
N MID LAKE BUOY  2350   43 36  180/ 10/ 12 1014.6R         1/ 5
SISTER BAY LKSHO 0003   63     160/  7/  8   N/A
STURGEON BAY CG  0005   58     250/  4     1016.1   3 1/2  1
CHAMBERS ISLAND  0000   60     170/  6/ 10 1014.2
MENOMINEE LKSHOR 0000   64     180/ 10/ 13 1015.4R
$$



USA.gov is the U.S. government's official web portal to all federal, state and local government web resources and services.